Location: Unspecified
(0.0000°N, 0.0000°E)
Time: 20:25:43
(UTC+01:00)

AO-7 - Visible Passes

Search period start: 20 January 2022 00:00
Search period end: 30 January 2022 00:00
Orbit: 1440 x 1459 km, 101.9° (Epoch: 19 January)

Date Brightness Start Highest point End Pass type
(mag) Time Alt. Az. Time Alt. Az. Time Alt. Az.
20 Jan ? 03:17:34 10° E 03:21:07 13° ESE 03:24:39 10° SE visible
20 Jan ? 05:05:03 10° N 05:13:22 74° WNW 05:21:42 10° SSW visible
21 Jan ? 04:06:04 10° NE 04:13:41 40° ESE 04:21:17 10° S visible
21 Jan ? 05:59:15 10° NNW 06:06:01 28° WNW 06:12:50 10° SW visible
22 Jan ? 03:12:17 10° E 03:14:08 11° ESE 03:15:59 10° ESE visible
22 Jan ? 04:57:59 10° NNE 05:06:21 83° WNW 05:14:44 10° SSW visible
23 Jan ? 03:59:20 10° NE 04:06:41 35° ESE 04:14:00 10° SSE visible
23 Jan ? 05:51:54 10° NNW 05:59:01 32° WNW 06:06:12 10° SW visible
24 Jan ? 04:50:58 10° NNE 04:59:21 88° ESE 05:07:44 10° SSW visible
25 Jan ? 03:52:40 10° NE 03:59:41 30° ESE 04:06:40 10° SSE visible
25 Jan ? 05:44:35 10° N 05:52:01 37° WNW 05:59:29 10° SW visible
26 Jan ? 04:43:59 10° NNE 04:52:21 79° ESE 05:00:42 10° SSW visible
26 Jan ? 06:41:52 10° NW 06:44:35 12° WNW 06:47:17 10° W visible
27 Jan ? 03:46:04 10° NE 03:52:41 26° ESE 03:59:16 10° SSE visible
27 Jan ? 05:37:19 10° N 05:45:01 42° WNW 05:52:45 10° SW visible
28 Jan ? 04:37:02 10° NNE 04:45:20 70° ESE 04:53:37 10° S visible
28 Jan ? 06:33:36 10° NW 06:37:36 14° WNW 06:41:37 10° WSW visible
29 Jan ? 03:39:33 10° ENE 03:45:42 23° ESE 03:51:49 10° SSE visible
29 Jan ? 05:30:07 10° N 05:38:01 48° WNW 05:45:57 10° SW visible
